Find Starlink 2428

NORAD ID: 48099 Int'l Des: 2021-027 Owner: SPXS Country: US Constellation: starlink operational
LEOCIRCULAR

現在のビュー

3D地球を読み込み中...

About Starlink 2428

Starlink 2428 (NORAD 48099) is a starlink constellation satellite (v1.0) launched Apr 7, 2021 by SPXS of US. It operates in LEO, CIRCULAR orbit with a mass of 260.00 kg.

次回通過

Passes for default location (London). Set your location on the main map for personalized predictions.

高度履歴

Loading altitude history...

軌道要素

1 48099U 21027H 26263.50742982 .00001500 00000-0 60078-4 0 9999
2 48099 53.1623 341.1469 0001457 86.5474 273.5694 15.31707479302321
Epoch: Sep 20, 2026 • Age: 17 hours

現在のステータス

高度 473.8 km
遠地点 / 近地点 N/A
速度 7.63 km/s
衛星直下点 41.48°N, 65.86°W
打ち上げ日 Apr 7, 2021
運用期間 5.4 years
タイプ internet

技術仕様

分類 Payload
質量 260.00 kg
乾燥質量 248.00 kg
長さ 0.20 m
スパン 9.00 m
形状 ? Box + pan
製造者 SPXS
バスタイプ Starlink
フェーズステータス In Orbit
所有者/国 SPXS/US

Most Searched